Time,TemperatureF,DewpointF,PressureIn,WindDirection,WindDirectionDegrees,WindSpeedMPH,WindSpeedGustMPH,Humidity,HourlyPrecipIn,Conditions,Clouds,dailyrainin,SoftwareType,DateUTC
2013-05-22 00:03:00,74.0,64.0,29.77,South,175,7.0,13.0,70,0.00,,,0.02,,2013-05-22 04:03:00,
2013-05-22 00:13:00,74.0,64.0,29.77,South,175,7.0,13.0,70,0.00,,,0.02,,2013-05-22 04:13:00,
2013-05-22 00:23:00,74.0,64.0,29.76,SSW,202,8.0,13.0,70,0.00,,,0.02,,2013-05-22 04:23:00,
2013-05-22 00:33:00,73.0,63.0,29.76,South,180,5.0,12.0,71,0.00,,,0.02,,2013-05-22 04:33:00,
2013-05-22 00:43:00,73.0,63.0,29.76,SW,228,5.0,12.0,72,0.00,,,0.02,,2013-05-22 04:43:00,
2013-05-22 00:53:00,73.0,63.0,29.76,SW,228,5.0,12.0,72,0.00,,,0.02,,2013-05-22 04:53:00,
2013-05-22 01:02:00,73.0,64.0,29.75,SE,128,6.0,10.0,74,0.00,,,0.02,,2013-05-22 05:02:00,
2013-05-22 01:12:00,72.0,64.0,29.75,SSW,211,4.0,9.0,75,0.00,,,0.02,,2013-05-22 05:12:00,
2013-05-22 01:21:00,72.0,64.0,29.75,SSW,211,4.0,9.0,75,0.00,,,0.02,,2013-05-22 05:21:00,
2013-05-22 01:32:00,72.0,64.0,29.75,SSW,200,8.0,14.0,76,0.00,,,0.02,,2013-05-22 05:32:00,
2013-05-22 01:42:00,71.0,63.0,29.75,South,181,5.0,10.0,76,0.00,,,0.02,,2013-05-22 05:42:00,
2013-05-22 01:52:00,71.0,63.0,29.75,South,181,5.0,10.0,76,0.00,,,0.02,,2013-05-22 05:52:00,
2013-05-22 02:01:00,71.0,63.0,29.74,SSW,202,5.0,11.0,77,0.00,,,0.02,,2013-05-22 06:01:00,
2013-05-22 02:12:00,71.0,64.0,29.74,South,174,5.0,9.0,78,0.00,,,0.02,,2013-05-22 06:12:00,
2013-05-22 02:21:00,71.0,64.0,29.74,South,174,5.0,9.0,78,0.00,,,0.02,,2013-05-22 06:21:00,
2013-05-22 02:32:00,70.0,63.0,29.74,SSE,157,4.0,10.0,79,0.00,,,0.02,,2013-05-22 06:32:00,
2013-05-22 02:42:00,70.0,63.0,29.74,South,190,9.0,14.0,79,0.00,,,0.02,,2013-05-22 06:42:00,
2013-05-22 02:52:00,70.0,63.0,29.74,South,190,9.0,14.0,79,0.00,,,0.02,,2013-05-22 06:52:00,
2013-05-22 03:01:00,70.0,63.0,29.74,SSW,194,6.0,13.0,78,0.00,,,0.02,,2013-05-22 07:01:00,
2013-05-22 03:11:00,70.0,63.0,29.74,SSW,194,6.0,13.0,78,0.00,,,0.02,,2013-05-22 07:11:00,
2013-05-22 03:21:00,70.0,63.0,29.74,South,186,7.0,12.0,78,0.00,,,0.02,,2013-05-22 07:21:00,
2013-05-22 03:32:00,70.0,63.0,29.74,South,189,7.0,13.0,79,0.00,,,0.02,,2013-05-22 07:32:00,
2013-05-22 03:42:00,70.0,63.0,29.74,South,189,7.0,13.0,79,0.00,,,0.02,,2013-05-22 07:42:00,
2013-05-22 03:53:00,70.0,63.0,29.73,South,175,5.0,13.0,78,0.00,,,0.02,,2013-05-22 07:53:00,
2013-05-22 04:02:00,70.0,63.0,29.72,SSW,194,8.0,13.0,78,0.00,,,0.02,,2013-05-22 08:02:00,
2013-05-22 04:11:00,70.0,63.0,29.72,SSW,194,8.0,13.0,78,0.00,,,0.02,,2013-05-22 08:11:00,
2013-05-22 04:22:00,70.0,63.0,29.72,South,182,7.0,13.0,78,0.00,,,0.02,,2013-05-22 08:22:00,
2013-05-22 04:32:00,70.0,63.0,29.72,South,171,5.0,15.0,79,0.00,,,0.02,,2013-05-22 08:32:00,
2013-05-22 04:42:00,70.0,63.0,29.72,South,171,5.0,15.0,79,0.00,,,0.02,,2013-05-22 08:42:00,
2013-05-22 04:52:00,70.0,64.0,29.72,SSW,196,5.0,9.0,80,0.00,,,0.02,,2013-05-22 08:52:00,
2013-05-22 05:01:00,69.0,63.0,29.73,SSW,200,8.0,15.0,81,0.00,,,0.02,,2013-05-22 09:01:00,
2013-05-22 05:12:00,69.0,63.0,29.73,SSW,200,8.0,15.0,81,0.00,,,0.02,,2013-05-22 09:12:00,
2013-05-22 05:22:00,69.0,64.0,29.71,South,178,5.0,12.0,84,0.00,,,0.00,,2013-05-22 09:22:00,
2013-05-22 05:33:00,68.0,63.0,29.72,South,190,8.0,14.0,85,0.00,,,0.00,,2013-05-22 09:33:00,
2013-05-22 05:42:00,68.0,63.0,29.72,South,190,8.0,14.0,85,0.00,,,0.00,,2013-05-22 09:42:00,
2013-05-22 05:53:00,68.0,64.0,29.72,South,175,6.0,11.0,86,0.00,,,0.00,,2013-05-22 09:53:00,
2013-05-22 06:03:00,68.0,64.0,29.72,South,171,5.0,11.0,87,0.00,,,0.00,,2013-05-22 10:03:00,
2013-05-22 06:12:00,68.0,64.0,29.72,South,186,5.0,8.0,88,0.00,,,0.00,,2013-05-22 10:12:00,
2013-05-22 06:23:00,68.0,64.0,29.72,South,186,5.0,8.0,88,0.00,,,0.00,,2013-05-22 10:23:00,
2013-05-22 06:33:00,68.0,64.0,29.72,SSW,200,9.0,16.0,87,0.00,,,0.00,,2013-05-22 10:33:00,
2013-05-22 06:42:00,68.0,64.0,29.72,SSW,200,9.0,16.0,87,0.00,,,0.00,,2013-05-22 10:42:00,
2013-05-22 06:53:00,68.0,64.0,29.72,South,190,8.0,19.0,86,0.00,,,0.00,,2013-05-22 10:53:00,
2013-05-22 07:02:00,68.0,64.0,29.73,SSW,194,7.0,12.0,86,0.00,,,0.00,,2013-05-22 11:02:00,
2013-05-22 07:11:00,68.0,64.0,29.73,SSW,194,7.0,12.0,86,0.00,,,0.00,,2013-05-22 11:11:00,
2013-05-22 07:22:00,68.0,64.0,29.74,South,191,8.0,17.0,86,0.00,,,0.00,,2013-05-22 11:22:00,
2013-05-22 07:32:00,68.0,64.0,29.74,SSW,201,8.0,13.0,87,0.00,,,0.00,,2013-05-22 11:32:00,
2013-05-22 07:42:00,67.0,64.0,29.73,SSW,192,3.0,8.0,90,0.00,,,0.00,,2013-05-22 11:42:00,
2013-05-22 07:53:00,67.0,64.0,29.73,SSW,192,3.0,8.0,90,0.00,,,0.00,,2013-05-22 11:53:00,
2013-05-22 08:02:00,67.0,64.0,29.74,South,175,5.0,9.0,90,0.00,,,0.00,,2013-05-22 12:02:00,
2013-05-22 08:12:00,67.0,64.0,29.74,South,175,5.0,9.0,90,0.00,,,0.00,,2013-05-22 12:12:00,
2013-05-22 08:22:00,67.0,64.0,29.73,South,190,6.0,12.0,90,0.00,,,0.00,,2013-05-22 12:22:00,
2013-05-22 08:32:00,67.0,64.0,29.72,SE,130,5.0,13.0,89,0.00,,,0.00,,2013-05-22 12:32:00,
2013-05-22 08:42:00,67.0,64.0,29.72,SE,130,5.0,13.0,89,0.00,,,0.00,,2013-05-22 12:42:00,
2013-05-22 08:52:00,67.0,63.0,29.72,SSE,163,8.0,15.0,88,0.00,,,0.00,,2013-05-22 12:52:00,
2013-05-22 09:02:00,67.0,63.0,29.72,South,173,6.0,11.0,88,0.00,,,0.00,,2013-05-22 13:02:00,
2013-05-22 09:12:00,67.0,63.0,29.72,South,173,6.0,11.0,88,0.00,,,0.00,,2013-05-22 13:12:00,
2013-05-22 09:22:00,67.0,63.0,29.72,SSE,166,8.0,13.0,87,0.00,,,0.00,,2013-05-22 13:22:00,
2013-05-22 09:32:00,68.0,63.0,29.72,SSW,194,10.0,18.0,85,0.00,,,0.00,,2013-05-22 13:32:00,
2013-05-22 09:42:00,68.0,63.0,29.72,SSW,194,10.0,18.0,85,0.00,,,0.00,,2013-05-22 13:42:00,
2013-05-22 09:52:00,67.0,62.0,29.72,South,178,8.0,16.0,85,0.00,,,0.00,,2013-05-22 13:52:00,
2013-05-22 10:02:00,67.0,63.0,29.71,SSW,198,8.0,13.0,87,0.01,,,0.01,,2013-05-22 14:02:00,
2013-05-22 10:11:00,67.0,63.0,29.71,SSW,198,8.0,13.0,87,0.01,,,0.01,,2013-05-22 14:11:00,
2013-05-22 10:22:00,68.0,64.0,29.71,SW,218,4.0,12.0,86,0.01,,,0.01,,2013-05-22 14:22:00,
2013-05-22 10:32:00,68.0,63.0,29.70,SSW,198,8.0,15.0,84,0.01,,,0.01,,2013-05-22 14:32:00,
2013-05-22 10:42:00,68.0,63.0,29.70,SSW,198,8.0,15.0,84,0.01,,,0.01,,2013-05-22 14:42:00,
2013-05-22 10:53:00,68.0,63.0,29.70,SSE,161,9.0,15.0,84,0.01,,,0.01,,2013-05-22 14:53:00,
2013-05-22 11:01:00,68.0,63.0,29.69,SSW,205,9.0,18.0,84,0.00,,,0.01,,2013-05-22 15:01:00,
2013-05-22 11:11:00,68.0,63.0,29.69,SSW,205,9.0,18.0,84,0.00,,,0.01,,2013-05-22 15:11:00,
2013-05-22 11:22:00,68.0,62.0,29.70,South,170,11.0,19.0,82,0.00,,,0.01,,2013-05-22 15:22:00,
2013-05-22 11:32:00,69.0,63.0,29.71,South,180,13.0,21.0,80,0.00,,,0.01,,2013-05-22 15:32:00,
2013-05-22 11:42:00,69.0,63.0,29.71,South,180,13.0,21.0,80,0.00,,,0.01,,2013-05-22 15:42:00,
2013-05-22 11:53:00,70.0,63.0,29.72,South,175,10.0,19.0,79,0.00,,,0.01,,2013-05-22 15:53:00,
2013-05-22 12:03:00,71.0,63.0,29.71,SSW,205,8.0,19.0,77,0.00,,,0.01,,2013-05-22 16:03:00,
2013-05-22 12:12:00,71.0,63.0,29.71,SSW,205,8.0,19.0,77,0.00,,,0.01,,2013-05-22 16:12:00,
2013-05-22 12:23:00,72.0,62.0,29.72,SSW,198,14.0,23.0,71,0.00,,,0.01,,2013-05-22 16:23:00,
2013-05-22 12:32:00,72.0,63.0,29.72,SSW,201,9.0,25.0,74,0.00,,,0.01,,2013-05-22 16:32:00,
2013-05-22 12:42:00,72.0,63.0,29.72,SSW,201,9.0,25.0,74,0.00,,,0.01,,2013-05-22 16:42:00,
2013-05-22 12:52:00,72.0,62.0,29.72,SW,214,11.0,21.0,71,0.00,,,0.01,,2013-05-22 16:52:00,
2013-05-22 13:02:00,73.0,62.0,29.71,South,185,14.0,21.0,69,0.00,,,0.01,,2013-05-22 17:02:00,
2013-05-22 13:12:00,74.0,62.0,29.71,WSW,252,9.0,22.0,67,0.00,,,0.01,,2013-05-22 17:12:00,
2013-05-22 13:23:00,74.0,62.0,29.71,WSW,252,9.0,22.0,67,0.00,,,0.01,,2013-05-22 17:23:00,
2013-05-22 13:33:00,75.0,62.0,29.70,South,173,14.0,21.0,64,0.00,,,0.01,,2013-05-22 17:33:00,
2013-05-22 13:42:00,75.0,62.0,29.70,South,173,14.0,21.0,64,0.00,,,0.01,,2013-05-22 17:42:00,
2013-05-22 13:54:00,75.0,62.0,29.70,South,182,10.0,20.0,65,0.00,,,0.01,,2013-05-22 17:54:00,
2013-05-22 14:02:00,75.0,62.0,29.69,South,183,15.0,22.0,64,0.00,,,0.01,,2013-05-22 18:02:00,
2013-05-22 14:14:00,75.0,62.0,29.69,South,183,15.0,22.0,64,0.00,,,0.01,,2013-05-22 18:14:00,
2013-05-22 14:22:00,76.0,62.0,29.69,South,179,14.0,27.0,62,0.00,,,0.01,,2013-05-22 18:22:00,
2013-05-22 14:33:00,75.0,61.0,29.69,SW,229,14.0,28.0,61,0.00,,,0.01,,2013-05-22 18:33:00,
2013-05-22 14:42:00,75.0,61.0,29.69,SW,229,14.0,28.0,61,0.00,,,0.01,,2013-05-22 18:42:00,
2013-05-22 14:52:00,74.0,61.0,29.70,SSW,200,15.0,26.0,63,0.00,,,0.01,,2013-05-22 18:52:00,
2013-05-22 15:02:00,73.0,61.0,29.70,South,181,17.0,29.0,66,0.00,,,0.01,,2013-05-22 19:02:00,
2013-05-22 15:11:00,73.0,61.0,29.70,South,181,17.0,29.0,66,0.00,,,0.01,,2013-05-22 19:11:00,
2013-05-22 15:21:00,69.0,61.0,29.71,South,178,17.0,33.0,77,0.00,,,0.01,,2013-05-22 19:21:00,
2013-05-22 15:32:00,67.0,62.0,29.70,SSE,161,10.0,25.0,85,0.00,,,0.01,,2013-05-22 19:32:00,
2013-05-22 15:42:00,68.0,62.0,29.70,SE,142,9.0,18.0,82,0.00,,,0.01,,2013-05-22 19:42:00,
2013-05-22 15:52:00,68.0,62.0,29.70,SE,142,9.0,18.0,82,0.00,,,0.01,,2013-05-22 19:52:00,
2013-05-22 16:02:00,71.0,63.0,29.70,SSW,205,9.0,17.0,76,0.00,,,0.01,,2013-05-22 20:02:00,
2013-05-22 16:11:00,73.0,64.0,29.69,South,185,7.0,17.0,73,0.00,,,0.01,,2013-05-22 20:11:00,
2013-05-22 16:22:00,73.0,64.0,29.69,South,185,7.0,17.0,73,0.00,,,0.01,,2013-05-22 20:22:00,
2013-05-22 16:32:00,71.0,63.0,29.69,SSW,210,12.0,22.0,75,0.00,,,0.01,,2013-05-22 20:32:00,
2013-05-22 16:42:00,73.0,63.0,29.68,WSW,239,12.0,22.0,72,0.00,,,0.01,,2013-05-22 20:42:00,
2013-05-22 16:52:00,73.0,63.0,29.68,WSW,239,12.0,22.0,72,0.00,,,0.01,,2013-05-22 20:52:00,
2013-05-22 17:01:00,74.0,64.0,29.67,SSW,200,7.0,19.0,72,0.00,,,0.01,,2013-05-22 21:01:00,
2013-05-22 17:11:00,74.0,64.0,29.67,SSW,200,7.0,19.0,72,0.00,,,0.01,,2013-05-22 21:11:00,
2013-05-22 17:21:00,74.0,62.0,29.66,SSW,209,11.0,19.0,67,0.00,,,0.01,,2013-05-22 21:21:00,
2013-05-22 17:32:00,71.0,61.0,29.68,West,259,18.0,28.0,70,0.01,,,0.02,,2013-05-22 21:32:00,
2013-05-22 17:42:00,71.0,61.0,29.68,West,259,18.0,28.0,70,0.01,,,0.02,,2013-05-22 21:42:00,
2013-05-22 17:53:00,67.0,63.0,29.69,WSW,246,10.0,18.0,86,0.05,,,0.06,,2013-05-22 21:53:00,
2013-05-22 18:03:00,70.0,64.0,29.68,WSW,250,8.0,15.0,81,0.05,,,0.06,,2013-05-22 22:03:00,
2013-05-22 18:13:00,70.0,64.0,29.68,WSW,250,8.0,15.0,81,0.05,,,0.06,,2013-05-22 22:13:00,
2013-05-22 18:22:00,70.0,62.0,29.68,WSW,254,8.0,21.0,75,0.05,,,0.06,,2013-05-22 22:22:00,
2013-05-22 18:33:00,70.0,61.0,29.69,SW,221,8.0,20.0,74,0.04,,,0.06,,2013-05-22 22:33:00,
2013-05-22 18:42:00,69.0,60.0,29.70,West,274,14.0,23.0,73,0.00,,,0.06,,2013-05-22 22:42:00,
2013-05-22 18:52:00,69.0,60.0,29.70,West,274,14.0,23.0,73,0.00,,,0.06,,2013-05-22 22:52:00,
2013-05-22 19:02:00,69.0,61.0,29.70,WSW,243,11.0,17.0,77,0.00,,,0.06,,2013-05-22 23:02:00,
2013-05-22 19:12:00,69.0,61.0,29.70,WSW,243,11.0,17.0,77,0.00,,,0.06,,2013-05-22 23:12:00,
2013-05-22 19:21:00,69.0,62.0,29.70,West,270,5.0,11.0,78,0.00,,,0.06,,2013-05-22 23:21:00,
2013-05-22 19:32:00,69.0,62.0,29.70,West,263,5.0,17.0,79,0.00,,,0.06,,2013-05-22 23:32:00,
2013-05-22 19:42:00,69.0,62.0,29.70,West,263,5.0,17.0,79,0.00,,,0.06,,2013-05-22 23:42:00,
2013-05-22 19:53:00,69.0,61.0,29.71,West,271,8.0,15.0,76,0.00,,,0.06,,2013-05-22 23:53:00,
2013-05-22 20:01:00,69.0,61.0,29.71,West,261,7.0,12.0,76,0.00,,,0.06,,2013-05-23 00:01:00,
2013-05-22 20:11:00,69.0,61.0,29.71,West,261,7.0,12.0,76,0.00,,,0.06,,2013-05-23 00:11:00,
2013-05-22 20:22:00,69.0,61.0,29.72,WSW,258,5.0,10.0,77,0.00,,,0.06,,2013-05-23 00:22:00,
2013-05-22 20:32:00,69.0,61.0,29.72,SW,231,4.0,8.0,77,0.00,,,0.06,,2013-05-23 00:32:00,
2013-05-22 20:42:00,69.0,61.0,29.72,SW,231,4.0,8.0,77,0.00,,,0.06,,2013-05-23 00:42:00,
2013-05-22 20:52:00,69.0,61.0,29.72,WSW,254,3.0,7.0,77,0.00,,,0.06,,2013-05-23 00:52:00,
2013-05-22 21:01:00,68.0,61.0,29.72,SW,228,3.0,5.0,78,0.00,,,0.06,,2013-05-23 01:01:00,
2013-05-22 21:11:00,68.0,61.0,29.72,SW,228,3.0,5.0,78,0.00,,,0.06,,2013-05-23 01:11:00,
2013-05-22 21:22:00,68.0,61.0,29.72,SW,224,0.0,3.0,79,0.00,,,0.06,,2013-05-23 01:22:00,
2013-05-22 21:32:00,67.0,61.0,29.72,WSW,239,1.0,4.0,80,0.00,,,0.06,,2013-05-23 01:32:00,
2013-05-22 21:42:00,67.0,61.0,29.72,WSW,239,0.0,2.0,81,0.00,,,0.06,,2013-05-23 01:42:00,
2013-05-22 21:52:00,67.0,61.0,29.72,WSW,239,0.0,2.0,81,0.00,,,0.06,,2013-05-23 01:52:00,
2013-05-22 22:02:00,67.0,61.0,29.72,WSW,239,1.0,2.0,81,0.00,,,0.06,,2013-05-23 02:02:00,
2013-05-22 22:11:00,67.0,61.0,29.72,WSW,239,1.0,2.0,81,0.00,,,0.06,,2013-05-23 02:11:00,
2013-05-22 22:21:00,67.0,61.0,29.73,WSW,238,1.0,3.0,81,0.00,,,0.06,,2013-05-23 02:21:00,
2013-05-22 22:32:00,66.0,60.0,29.74,SSW,198,6.0,9.0,80,0.00,,,0.06,,2013-05-23 02:32:00,
2013-05-22 22:42:00,66.0,60.0,29.74,SSW,198,6.0,9.0,80,0.00,,,0.06,,2013-05-23 02:42:00,
2013-05-22 22:52:00,66.0,60.0,29.74,SSW,198,6.0,9.0,80,0.00,,,0.06,,2013-05-23 02:52:00,
2013-05-22 23:02:00,66.0,59.0,29.75,SW,219,4.0,7.0,77,0.00,,,0.06,,2013-05-23 03:02:00,
2013-05-22 23:11:00,66.0,59.0,29.75,SW,219,4.0,7.0,77,0.00,,,0.06,,2013-05-23 03:11:00,
2013-05-22 23:21:00,65.0,58.0,29.75,SW,221,3.0,5.0,79,0.00,,,0.06,,2013-05-23 03:21:00,
2013-05-22 23:33:00,65.0,58.0,29.75,SSW,197,3.0,7.0,79,0.00,,,0.06,,2013-05-23 03:33:00,
2013-05-22 23:43:00,65.0,58.0,29.75,SSW,197,3.0,7.0,79,0.00,,,0.06,,2013-05-23 03:43:00,
2013-05-22 23:53:00,65.0,59.0,29.75,SSW,210,4.0,8.0,81,0.00,,,0.06,,2013-05-23 03:53:00,